COSMOS 249 DEB, 18468

Orbit data source: Space-Track

COSMOS 249 DEB, 18468 is space debris in LEO originally from a launch on Sun, 20 Oct 1968 UTC launched from the Tyuratam Missile And Space Complex (TTMTR). Debris objects in space refer to the collection of defunct objects orbiting the Earth. Examples of debris include non-operational satellites, rocket bodies, and fragments generated from explosions, collisions, or faulty payload assembly.

Loading next visibility...
Identifier
18468, 1968-091DD
Orbit
LEO
Country
Flag of CISCIS
Related business
Manufacturer
Unknown
Mission
Spacecraft
Bus & Motor
Unknown
Mass
Unknown
Launch date (UTC)
1968-10-20 (58 years ago)
Launch vehicle
Unknown
Launch site
Tyuratam Missile And Space Complex (TTMTR)
Object type
Payload
Rocket body
Debris
Shape & HBR
Unknown shape, 0.1 m
Radar Cross Section
Medium (>0.1 m² and <1 m²)

Expand to show TLE details & history
Last TLE update: 19 hours ago

TLE from 19 hours ago
0 COSMOS 249 DEB
1 18468U 68091DD  26235.71306645  .00000279  00000-0  41591-3 0  9992
2 18468  62.2549 345.5658 0777666 102.1827 266.7293 12.82244053608137
Epoch: 2026-08-23T17:06Z
TLE epoch observation values (Epoch: 2026-08-23T17:06:48.941Z)
Latitude
0.00003°
Longitude
116.85672°
Altitude
1,414.304 km
Speed
7.117 km/s
True Right ascension
23h 02m 15s
True Declination
0° 00' 00"
Sunlit
Object was in full shadow at epoch
Visualization orbit readout
Latitude
Unknown
Longitude
Unknown
Altitude
Unknown
Speed
Unknown
Apparent Right ascension
Unknown
Apparent Declination
Unknown
Sunlit
N/A
Visualization observer readout
Local Sidereal Time
03:32:39
Azimuth
Unknown
Elevation
Unknown
Doppler factor
Unknown
Orbital elements
Apogee altitude
1,931.006 km
Perigee altitude
731.908 km
Semi-major axis
7,709.594 km
Eccentricity
0.07777
Inclination
62.2549°
RAAN
345.5658°
Arg. of periapsis
102.1827°
True anomaly
257.91635°
Mean anomaly
266.7293°
Eccentric anomaly
262.31364°
Mean motion
3.20624 °/min
Orbital period
112.28 mins
BSTAR
0.00041591
Loading maneuver chart data...
Computing Atmospheric mass density...
Loading historical data...
Loading historical data...
Loading historical data...
Loading historical data...
Loading historical data...
Loading historical data...
Loading historical data...

Documentation

Showing up to 5 results
|